SCP
0 0 0 0 -0 -0 0 0 0 0 0 0 0 0 0 0 0 0 -0 0 0 0 -0 -0 -0 -0 0 0 0 0 -0 -0 -0 -0 -0 -0 -0 0 0 0 0 0 0 0 0 0 0 0 0
0 0 0 0 0 0 -0 0 0 0 -0 -0 0 0 0 0 0 -0 0 -0 0 -0 0 0 -0 0 0 0 0 -0 -0 0 -0 -0 -0 0 0 0 0 0 0 0 0 0 0 0 0 0 0
0 0 0 0 -0 0 0 0 -0 -0 -0 0 0 0 0 0 0 0 0 0 0 0 0 0 0 0 0 0 0 0 0 -0 0 0 0 0 0 0 0 0 0 0 0 0 0 0 0 0 0
0 0 0 0 -0 -0 0 0 -0 -0 -0 -0 -0 0 0 0 0 0 -0 -0 -0 -0 0 0 0 0 0 0 0 0 -0 -0 -0 0 0 0 0 0 -0 -0 0 0 0 0 0 0 0 0 0
0 0 -0 -0 -0 -0 0 -0 -0 -0 -0 -0 0 0 0 0 -0 -0 -0 -0 -0 -0 0 0 0 0 0 0 -0 -0 -0 -0 0 0 0 -0 -0 -0 -0 -0 -0 -0 0 0 0 0 0 0 0
-0 0 0 0 -0 0 -0 -0 -0 -0 -0 0 0 0 0 -0 0 -0 -0 -0 -0 -0 -0 0 0 0 0 0 -0 0 -0 -0 -0 -0 -0 -0 -0 -0 -0 -0 0 0 0 0 0 0 0 0 0
-0 -0 -0 -0 -0 -0 -0 -0 0 0 -0 0 0 0 0 0 0 0 -0 -0 -0 -0 0 -0 -0 0 0 -0 0 -0 -0 -0 -0 -0 -0 -0 -0 -0 -0 0 0 0 0 -0 0 0 0 0 0
-0 -0 -0 -0 -0 -0 -0 -0 0 0 0 -0 0 0 0 0 0 0 -0 -0 -0 -0 -0 -0 0 -0 0 -0 -0 -0 -0 -0 -0 -0 -0 -0 -0 -0 -0 -0 -0 -0 -0 -0 -0 -0 -0 -0 -0
0 -0 -0 -0 -0 -0 -0 -0 0 0 -0 0 0 0 0 0 0 0 0 -0 -0 -0 0 0 -0 -0 0 0 0 0 0 0 0 -0 -0 -0 -0 -0 -0 -0 -0 -0 -0 -0 -0 -0 -0 -0 0
-0 -0 -0 0 0 -0 -0 0 -0 0 0 0 0 -0 -0 -0 -0 0 0 -0 0 0 0 0 0 0 0 0 0 0 0 -0 -0 -0 -0 -0 -0 -0 -0 0 -0 -0 -0 -0 -0 -0 0 0 0
0 -0 -0 -0 -0 0 -0 0 -0 0 0 0 0 -0 -0 -0 -0 -0 0 0 0 0 0 0 0 0 0 0 0 0 0 0 0 0 0 -0 -0 -0 -0 0 -0 -0 -0 0 0 0 0 0 0
0 0 0 0 -0 -0 -0 -0 0 0 0 0 -0 0 -0 -0 -0 -0 0 0 0 0 0 0 0 0 0 0 0 0 0 0 0 0 0 -0 -0 -0 -0 -0 -0 -0 -0 -0 0 0 0 0 0
0 0 0 0 0 0 -0 0 0 0 -0 0 0 -0 -0 -0 -0 0 0 0 0 0 0 0 0 0 0 0 0 0 0 0 0 -0 -0 -0 -0 -0 -0 -0 -0 -0 -0 -0 0 0 0 0 0
0 0 0 0 0 0 0 0 0 0 0 0 0 -0 -0 -0 -0 0 0 0 0 0 0 0 0 0 0 0 0 0 0 0 -0 -0 -0 -0 -0 -0 -0 -0 -0 -0 -0 -0 0 0 0 0 0
0 0 0 0 0 0 0 0 0 0 0 0 0 0 0 0 0 0 0 0 0 0 0 0 0 0 0 0 0 0 0 -0 -0 -0 -0 -0 -0 -0 -0 -0 -0 -0 -0 -0 0 0 0 0 0
0 0 0 0 0 0 0 0 0 0 0 0 0 0 0 0 0 0 0 0 0 0 0 0 0 0 0 0 0 0 0 0 -0 -0 -0 -0 -0 -0 -0 -0 -0 -0 -0 -0 0 0 0 0 0
0 0 0 0 0 0 0 0 0 0 0 0 0 0 0 0 0 0 0 0 0 0 0 0 0 0 0 0 0 0 0 0 0 -0 -0 -0 -0 -0 -0 -0 -0 -0 -0 -0 -0 0 0 0 0
0 0 0 0 0 0 0 0 0 0 0 0 0 0 0 0 0 0 0 0 0 0 0 0 0 0 0 0 0 0 0 0 0 0 0 0 -0 -0 -0 -0 -0 -0 -0 -0 -0 0 0 0 0
0 0 0 0 0 0 0 0 0 0 0 0 0 0 0 0 0 0 0 0 0 0 0 0 0 0 0 0 0 0 0 0 0 0 0 0 -0 -0 -0 -0 -0 -0 -0 -0 0 0 0 0 -0
0 0 0 0 0 0 0 0 0 0 0 0 0 0 0 0 0 0 0 0 0 0 0 0 0 0 0 0 0 0 0 0 0 0 0 0 0 -0 -0 -0 -0 -0 -0 0 0 0 0 0 0
0 0 0 0 0 0 0 0 0 0 0 0 0 0 0 0 0 0 0 0 0 0 0 0 0 0 0 0 0 0 0 0 0 0 0 0 0 -0 -0 -0 -0 -0 -0 -0 0 0 0 -0 0
0 0 0 0 0 0 0 0 0 0 0 0 0 0 0 0 0 0 0 0 0 0 0 0 0 0 0 0 0 0 0 0 0 0 0 0 0 -0 -0 -0 -0 -0 -0 0 -0 0 0 0 0
0 0 0 0 0 0 0 0 0 0 0 0 0 0 0 0 0 0 0 0 0 0 0 0 0 0 0 0 0 0 0 0 0 0 0 0 0 -0 -0 -0 -0 -0 -0 0 0 0 0 0 0
0 0 0 0 0 0 0 0 0 0 0 0 0 0 0 0 0 0 0 0 0 0 0 0 0 0 0 0 0 0 0 0 0 0 0 0 0 -0 -0 -0 -0 -0 -0 0 0 0 0 0 0
0 0 0 0 0 0 0 0 0 0 0 0 0 0 0 0 0 0 0 0 0 0 0 0 0 0 0 0 0 0 0 0 0 0 0 0 0 0 -0 -0 -0 -0 -0 -0 0 0 0 0 0
0 0 0 0 0 0 0 0 0 0 0 0 0 0 0 0 0 0 0 0 0 0 0 0 0 0 0 0 0 0 0 0 0 0 0 0 0 0 -0 -0 -0 -0 -0 0 0 0 0 0 0
0 0 0 0 0 0 0 0 0 0 0 0 0 0 0 0 -0 0 0 0 0 0 0 0 0 0 0 0 0 0 0 0 0 0 0 0 0 0 0 -0 -0 -0 -0 0 0 0 0 0 0
0 0 0 0 0 0 0 0 0 0 0 0 0 0 0 -0 -0 0 0 0 0 0 0 0 0 0 0 0 0 0 0 0 0 0 0 0 0 0 0 -0 -0 -0 -0 0 0 0 0 0 -0
0 0 0 0 0 0 0 0 0 0 0 0 0 0 -0 -0 -0 0 0 0 0 0 0 0 0 0 0 0 0 0 0 0 0 0 0 0 0 0 0 0 0 -0 -0 0 0 0 0 -0 -0
0 0 0 0 0 0 0 0 0 0 0 0 0 0 0 -0 0 0 0 0 0 0 0 0 0 0 0 0 0 0 0 0 0 0 0 0 0 0 0 0 0 0 0 0 0 0 0 -0 -0
Wind_Speed_500mb
1 3 3 1 9 5 8 9 5 6 9 3 3 3 7 9 5 4 9 4 15 22 27 35 38 40 40 40 37 38 32 30 29 30 29 29 30 31 32 33 34 38 42 45 49 54 56 56 50
2 5 3 1 6 7 10 6 14 7 12 18 12 6 5 6 7 6 0 8 14 23 32 37 39 39 39 38 36 34 30 28 27 26 26 26 26 27 28 30 32 34 37 40 43 48 55 60 61
5 4 4 2 2 1 5 10 11 21 9 2 6 8 5 8 6 4 3 9 19 27 33 37 39 38 35 31 28 24 22 25 27 27 28 29 28 29 29 29 30 30 32 36 41 47 52 58 64
6 1 6 4 7 3 3 16 11 18 8 6 8 7 8 8 7 5 4 10 19 28 34 36 37 35 31 30 26 24 26 25 27 30 29 28 28 31 35 38 35 33 30 29 33 37 43 50 58
7 2 4 5 6 4 5 9 21 9 7 7 3 7 7 8 8 4 5 14 23 30 35 38 35 30 26 23 24 25 26 31 34 35 39 45 48 46 45 45 41 41 41 41 42 45 46 44 44
4 2 7 8 7 2 11 13 15 8 5 4 3 11 7 11 11 6 6 16 24 31 36 33 28 23 21 23 23 30 36 40 41 40 43 46 48 41 38 39 37 35 37 39 40 43 46 46 48
2 3 5 7 11 10 9 17 12 11 12 8 9 5 6 15 16 10 8 18 25 31 31 29 24 21 22 25 35 38 38 39 38 38 41 45 45 43 38 34 33 35 38 40 40 40 41 43 43
7 4 9 4 10 6 14 17 3 7 6 10 8 2 4 17 15 9 9 19 26 30 29 23 22 26 30 35 35 35 35 34 33 33 35 35 40 39 41 40 42 40 38 38 40 45 46 48 52
8 6 7 9 11 7 15 13 5 6 6 6 8 5 7 10 14 6 11 18 25 25 22 21 25 29 30 28 29 31 31 29 28 26 30 34 34 35 39 49 48 43 44 45 47 44 43 46 55
2 8 5 3 7 7 18 11 14 8 9 10 8 15 13 14 14 7 8 14 20 22 20 21 24 25 25 24 23 23 25 27 31 33 31 32 35 38 41 47 50 44 46 47 45 47 39 42 49
4 3 8 9 6 6 18 13 14 11 12 15 15 22 21 19 14 8 8 12 17 17 18 20 21 23 22 22 22 22 25 26 28 31 30 33 35 39 45 49 49 50 43 45 46 49 44 35 38
8 7 4 7 7 9 14 11 9 20 5 6 13 16 23 20 14 10 7 11 13 13 13 17 20 20 20 21 21 23 23 25 27 30 31 34 39 43 47 50 49 48 47 41 42 44 42 41 27
5 11 9 8 8 3 10 8 9 16 17 20 11 15 22 22 19 12 8 9 10 10 12 15 15 14 16 15 18 20 22 26 31 31 34 37 41 43 46 46 47 46 44 41 38 33 35 36 36
9 15 12 6 7 5 5 4 3 4 18 19 18 20 24 24 20 14 10 8 7 6 8 10 10 10 13 14 16 17 22 27 29 32 36 38 42 43 45 46 46 45 45 43 38 31 28 27 30
19 10 7 7 5 2 4 12 14 7 7 16 23 24 28 28 25 19 14 9 4 2 5 7 7 8 11 13 12 16 22 26 28 31 35 39 42 45 47 49 50 51 49 44 35 32 27 23 34
7 4 9 6 8 1 6 11 7 6 16 21 24 25 30 32 29 25 18 12 6 2 4 5 6 10 12 10 13 17 22 24 26 30 35 38 41 43 45 47 50 51 50 49 46 34 25 24 33
3 8 14 5 5 3 7 9 3 4 14 22 27 31 34 35 37 32 24 18 11 7 7 7 8 14 11 12 12 16 19 21 24 28 32 36 38 41 43 45 47 48 48 48 49 44 28 27 24
14 10 7 7 8 6 7 30 18 16 18 28 31 37 41 37 41 38 30 24 17 13 11 11 14 17 10 9 10 14 16 18 22 26 30 33 37 39 41 45 45 46 48 49 51 53 40 23 16
9 7 8 5 4 8 14 28 31 29 34 43 45 38 35 42 36 42 38 32 23 18 15 15 19 18 11 6 6 9 10 15 18 23 29 32 34 37 41 44 44 47 53 52 47 45 47 45 23
8 7 5 4 3 7 3 27 33 36 30 28 29 34 41 38 43 50 48 39 31 24 20 20 22 21 14 7 2 5 8 12 16 21 26 29 31 36 41 43 46 48 46 45 47 46 45 45 46
9 16 10 2 7 1 11 11 10 3 6 2 11 19 28 43 51 55 58 49 39 31 25 23 25 23 19 11 4 2 6 8 15 18 23 27 32 37 39 42 45 45 48 49 48 47 46 45 40
13 9 11 15 8 6 7 8 12 4 10 9 11 8 14 25 37 48 58 56 47 36 30 27 27 26 20 12 7 5 6 7 10 14 20 25 31 33 37 41 43 45 46 45 48 46 44 41 40
6 10 12 6 6 2 5 6 12 5 7 8 11 21 17 12 25 41 53 54 47 39 32 29 29 27 21 13 10 10 10 9 9 11 17 23 25 28 33 38 41 41 44 44 42 41 41 42 41
27 16 12 7 3 5 5 7 7 5 5 17 20 22 16 4 16 29 42 51 48 41 36 33 33 29 22 16 13 14 13 11 9 10 15 18 21 25 32 37 38 40 41 41 43 42 40 38 39
5 13 5 5 6 4 4 6 7 6 12 12 22 24 15 4 11 27 45 56 53 46 40 39 36 31 25 20 16 15 14 12 9 9 12 14 19 24 30 34 36 38 41 41 40 40 39 39 39
17 5 7 11 9 7 3 11 4 4 3 4 6 10 12 6 6 22 38 54 55 48 43 42 40 34 28 23 18 17 16 14 10 8 10 12 18 22 28 32 34 37 37 38 37 38 38 39 41
13 11 5 12 3 2 7 10 5 9 7 2 7 12 12 8 5 16 33 53 57 51 45 44 43 39 33 27 22 20 20 17 13 11 10 12 16 21 26 30 32 34 34 35 35 37 37 38 40
4 8 8 1 11 9 7 9 8 15 7 9 6 12 20 18 12 13 29 50 56 50 46 44 44 40 35 31 27 24 23 21 17 14 12 12 15 20 24 27 29 31 32 33 33 37 36 35 38
9 7 2 3 2 6 7 6 5 17 18 14 7 12 16 19 15 15 24 44 57 56 52 49 48 45 40 34 29 26 24 24 20 17 15 14 15 19 22 24 26 28 29 31 31 37 35 34 37
6 6 11 8 10 1 2 4 6 9 13 7 14 22 24 23 18 19 22 38 57 61 58 54 53 50 44 38 35 33 30 27 23 20 19 16 16 18 21 23 23 25 26 28 29 34 34 33 36
Wind_Direction_500mb
4 157 140 122 224 207 123 121 104 134 132 62 142 226 78 48 14 8 155 334 342 340 341 342 342 338 337 340 345 340 338 339 337 339 337 337 334 330 323 315 308 299 291 287 284 283 281 279 272
148 141 93 237 260 225 120 136 157 110 115 116 105 85 71 92 68 106 144 305 332 344 343 340 340 338 340 344 344 341 343 349 353 356 355 352 346 337 328 322 318 310 303 299 292 284 279 276 273
159 157 246 79 68 152 104 142 129 128 133 184 99 67 118 99 113 147 251 328 349 344 340 340 340 339 343 345 346 341 2 8 5 0 2 359 352 347 343 336 329 319 313 306 301 296 291 284 277
156 99 63 274 90 78 43 142 154 139 118 135 142 98 70 153 168 192 306 337 342 343 341 338 343 346 347 348 355 4 16 13 11 11 8 4 2 2 1 1 358 355 344 331 314 303 297 290 287
153 173 150 109 105 124 147 143 160 148 117 112 220 115 117 173 177 197 299 348 343 340 343 346 346 349 350 357 1 18 24 23 19 18 15 13 10 8 8 5 7 359 352 348 339 336 331 324 304
184 233 194 166 133 141 148 165 164 156 112 152 117 148 145 197 199 228 317 337 338 344 345 347 346 351 359 12 14 28 27 22 20 17 20 17 11 10 12 12 8 7 3 357 355 352 352 348 340
232 232 95 124 128 167 177 169 199 173 160 163 156 176 145 204 212 229 303 330 336 346 343 350 353 359 10 15 25 29 25 21 19 20 20 17 14 16 11 13 20 24 19 17 12 12 11 6 358
125 99 137 169 177 138 151 169 184 189 151 165 163 185 160 200 207 227 307 324 340 343 346 348 2 13 17 22 26 27 24 24 22 22 21 19 21 21 19 21 26 29 30 28 27 22 22 23 16
134 188 179 168 176 130 155 185 156 182 142 179 202 181 203 194 198 234 313 329 337 339 349 3 15 19 22 28 31 30 27 33 29 27 25 25 26 28 28 30 31 33 34 36 31 26 31 26 26
202 224 149 95 133 135 172 194 175 184 186 212 218 228 210 190 193 223 296 323 336 346 357 14 22 27 27 33 41 40 38 40 42 42 38 35 30 25 29 32 32 35 41 40 35 34 32 32 28
61 243 132 137 131 113 164 192 178 207 222 226 220 206 206 195 198 227 286 322 341 346 11 23 27 33 39 49 50 48 46 44 44 40 35 33 28 25 29 31 30 33 35 37 35 36 29 25 25
138 91 74 131 163 147 168 154 203 218 240 186 216 203 203 197 199 223 283 323 337 357 23 32 31 38 48 56 55 49 44 44 41 37 32 35 33 29 30 31 30 31 31 30 31 33 33 30 18
125 141 99 116 144 128 159 199 238 242 232 237 239 210 199 196 207 226 269 311 338 6 30 35 40 52 63 64 58 53 47 42 39 35 35 33 34 31 29 29 30 31 31 29 29 30 31 39 39
110 119 112 121 126 128 254 224 263 210 232 223 220 205 202 205 212 229 254 293 328 14 48 51 59 71 78 74 70 56 50 42 35 34 35 33 35 35 35 34 33 31 29 30 30 31 33 47 55
126 117 135 140 157 120 267 236 228 248 220 202 207 205 208 208 215 224 239 260 290 53 81 83 91 103 103 87 69 59 46 36 33 37 41 41 42 41 40 41 40 39 38 36 35 38 54 56 65
133 178 199 130 178 141 239 263 169 270 212 213 205 205 210 216 219 226 229 238 241 167 127 128 130 130 126 91 80 52 43 40 42 46 47 46 46 45 42 42 42 42 41 42 44 47 60 66 68
179 202 210 162 187 157 230 276 133 243 213 229 221 216 217 215 220 225 224 225 221 197 175 170 158 147 131 114 69 52 48 48 53 53 52 50 48 48 47 46 46 45 46 45 47 48 58 65 66
176 197 188 197 157 213 223 261 254 242 228 240 233 226 222 218 223 224 220 220 217 207 195 187 179 169 153 120 66 49 51 60 60 58 56 53 50 50 50 49 49 50 51 50 49 53 54 56 57
132 135 147 120 141 214 244 275 278 264 245 246 239 235 229 226 220 221 219 218 216 210 202 196 192 187 178 148 55 42 55 69 66 63 58 55 53 52 51 51 50 51 51 53 53 49 51 57 71
150 158 184 94 116 237 292 282 279 261 248 265 265 248 237 225 214 217 216 216 215 212 207 202 198 195 190 184 120 63 74 73 69 63 60 57 55 54 53 52 51 50 52 53 55 57 58 51 46
206 226 186 323 152 185 294 262 286 290 131 269 263 257 241 226 220 214 213 213 213 211 207 203 199 194 191 191 189 96 97 85 70 64 60 58 55 53 51 52 52 49 48 48 49 50 53 59 60
216 192 147 141 202 265 340 300 281 317 337 76 65 360 274 236 221 213 210 209 209 206 204 200 192 188 189 196 191 159 155 116 94 75 66 61 57 56 53 53 51 49 49 48 47 46 47 52 55
119 133 125 129 137 256 166 228 270 53 113 6 343 1 344 248 216 207 206 208 207 206 202 194 188 187 191 194 193 168 165 151 116 91 79 69 64 60 58 56 54 52 51 50 51 52 49 48 49
140 107 79 78 122 233 127 251 270 340 307 317 337 341 340 284 200 200 201 204 204 203 200 195 192 193 195 196 195 182 173 165 140 111 87 85 77 69 62 59 54 53 53 52 51 50 50 51 50
169 162 150 196 190 248 43 222 305 301 323 317 328 336 348 339 195 193 196 200 202 204 200 198 198 198 200 202 201 189 179 174 157 124 106 96 85 74 69 64 60 56 55 53 52 50 50 53 52
182 226 198 203 190 150 51 230 181 261 270 309 336 354 17 23 210 204 202 202 205 206 204 201 200 200 203 205 202 195 186 180 173 146 122 111 94 83 76 71 66 61 60 57 55 54 53 55 55
162 204 73 104 17 200 189 258 246 152 138 110 46 18 7 351 266 210 203 204 208 208 208 206 203 204 205 205 203 198 193 191 184 173 147 131 106 91 82 77 73 70 67 63 61 58 57 58 59
300 129 136 200 166 209 199 270 227 199 118 107 45 6 0 333 292 232 209 206 210 212 213 210 208 210 209 209 206 201 197 195 190 183 166 146 118 101 92 87 83 77 72 68 65 63 59 61 61
154 178 94 109 320 175 170 223 194 159 151 135 360 336 340 332 300 269 227 210 210 212 213 213 212 212 212 212 212 208 205 202 196 188 178 160 136 116 105 98 91 85 79 74 68 67 64 64 65
329 186 182 189 182 155 321 182 168 137 161 163 352 334 337 341 312 276 244 220 212 213 214 214 214 214 214 214 214 211 206 206 202 195 191 171 153 132 121 111 102 94 86 80 74 71 67 67 68
Wind_Speed_850mb
1 3 3 1 9 5 8 9 5 6 9 3 3 3 7 9 5 4 9 4 15 22 27 35 38 40 40 40 37 38 32 30 29 30 29 29 30 31 32 33 34 38 42 45 49 54 56 56 50
2 5 3 1 6 7 10 6 14 7 12 18 12 6 5 6 7 6 0 8 14 23 32 37 39 39 39 38 36 34 30 28 27 26 26 26 26 27 28 30 32 34 37 40 43 48 55 60 61
5 4 4 2 2 1 5 10 11 21 9 2 6 8 5 8 6 4 3 9 19 27 33 37 39 38 35 31 28 24 22 25 27 27 28 29 28 29 29 29 30 30 32 36 41 47 52 58 64
6 1 6 4 7 3 3 16 11 18 8 6 8 7 8 8 7 5 4 10 19 28 34 36 37 35 31 30 26 24 26 25 27 30 29 28 28 31 35 38 35 33 30 29 33 37 43 50 58
7 2 4 5 6 4 5 9 21 9 7 7 3 7 7 8 8 4 5 14 23 30 35 38 35 30 26 23 24 25 26 31 34 35 39 45 48 46 45 45 41 41 41 41 42 45 46 44 44
4 2 7 8 7 2 11 13 15 8 5 4 3 11 7 11 11 6 6 16 24 31 36 33 28 23 21 23 23 30 36 40 41 40 43 46 48 41 38 39 37 35 37 39 40 43 46 46 48
2 3 5 7 11 10 9 17 12 11 12 8 9 5 6 15 16 10 8 18 25 31 31 29 24 21 22 25 35 38 38 39 38 38 41 45 45 43 38 34 33 35 38 40 40 40 41 43 43
7 4 9 4 10 6 14 17 3 7 6 10 8 2 4 17 15 9 9 19 26 30 29 23 22 26 30 35 35 35 35 34 33 33 35 35 40 39 41 40 42 40 38 38 40 45 46 48 52
8 6 7 9 11 7 15 13 5 6 6 6 8 5 7 10 14 6 11 18 25 25 22 21 25 29 30 28 29 31 31 29 28 26 30 34 34 35 39 49 48 43 44 45 47 44 43 46 55
2 8 5 3 7 7 18 11 14 8 9 10 8 15 13 14 14 7 8 14 20 22 20 21 24 25 25 24 23 23 25 27 31 33 31 32 35 38 41 47 50 44 46 47 45 47 39 42 49
4 3 8 9 6 6 18 13 14 11 12 15 15 22 21 19 14 8 8 12 17 17 18 20 21 23 22 22 22 22 25 26 28 31 30 33 35 39 45 49 49 50 43 45 46 49 44 35 38
8 7 4 7 7 9 14 11 9 20 5 6 13 16 23 20 14 10 7 11 13 13 13 17 20 20 20 21 21 23 23 25 27 30 31 34 39 43 47 50 49 48 47 41 42 44 42 41 27
5 11 9 8 8 3 10 8 9 16 17 20 11 15 22 22 19 12 8 9 10 10 12 15 15 14 16 15 18 20 22 26 31 31 34 37 41 43 46 46 47 46 44 41 38 33 35 36 36
9 15 12 6 7 5 5 4 3 4 18 19 18 20 24 24 20 14 10 8 7 6 8 10 10 10 13 14 16 17 22 27 29 32 36 38 42 43 45 46 46 45 45 43 38 31 28 27 30
19 10 7 7 5 2 4 12 14 7 7 16 23 24 28 28 25 19 14 9 4 2 5 7 7 8 11 13 12 16 22 26 28 31 35 39 42 45 47 49 50 51 49 44 35 32 27 23 34
7 4 9 6 8 1 6 11 7 6 16 21 24 25 30 32 29 25 18 12 6 2 4 5 6 10 12 10 13 17 22 24 26 30 35 38 41 43 45 47 50 51 50 49 46 34 25 24 33
3 8 14 5 5 3 7 9 3 4 14 22 27 31 34 35 37 32 24 18 11 7 7 7 8 14 11 12 12 16 19 21 24 28 32 36 38 41 43 45 47 48 48 48 49 44 28 27 24
14 10 7 7 8 6 7 30 18 16 18 28 31 37 41 37 41 38 30 24 17 13 11 11 14 17 10 9 10 14 16 18 22 26 30 33 37 39 41 45 45 46 48 49 51 53 40 23 16
9 7 8 5 4 8 14 28 31 29 34 43 45 38 35 42 36 42 38 32 23 18 15 15 19 18 11 6 6 9 10 15 18 23 29 32 34 37 41 44 44 47 53 52 47 45 47 45 23
8 7 5 4 3 7 3 27 33 36 30 28 29 34 41 38 43 50 48 39 31 24 20 20 22 21 14 7 2 5 8 12 16 21 26 29 31 36 41 43 46 48 46 45 47 46 45 45 46
9 16 10 2 7 1 11 11 10 3 6 2 11 19 28 43 51 55 58 49 39 31 25 23 25 23 19 11 4 2 6 8 15 18 23 27 32 37 39 42 45 45 48 49 48 47 46 45 40
13 9 11 15 8 6 7 8 12 4 10 9 11 8 14 25 37 48 58 56 47 36 30 27 27 26 20 12 7 5 6 7 10 14 20 25 31 33 37 41 43 45 46 45 48 46 44 41 40
6 10 12 6 6 2 5 6 12 5 7 8 11 21 17 12 25 41 53 54 47 39 32 29 29 27 21 13 10 10 10 9 9 11 17 23 25 28 33 38 41 41 44 44 42 41 41 42 41
27 16 12 7 3 5 5 7 7 5 5 17 20 22 16 4 16 29 42 51 48 41 36 33 33 29 22 16 13 14 13 11 9 10 15 18 21 25 32 37 38 40 41 41 43 42 40 38 39
5 13 5 5 6 4 4 6 7 6 12 12 22 24 15 4 11 27 45 56 53 46 40 39 36 31 25 20 16 15 14 12 9 9 12 14 19 24 30 34 36 38 41 41 40 40 39 39 39
17 5 7 11 9 7 3 11 4 4 3 4 6 10 12 6 6 22 38 54 55 48 43 42 40 34 28 23 18 17 16 14 10 8 10 12 18 22 28 32 34 37 37 38 37 38 38 39 41
13 11 5 12 3 2 7 10 5 9 7 2 7 12 12 8 5 16 33 53 57 51 45 44 43 39 33 27 22 20 20 17 13 11 10 12 16 21 26 30 32 34 34 35 35 37 37 38 40
4 8 8 1 11 9 7 9 8 15 7 9 6 12 20 18 12 13 29 50 56 50 46 44 44 40 35 31 27 24 23 21 17 14 12 12 15 20 24 27 29 31 32 33 33 37 36 35 38
9 7 2 3 2 6 7 6 5 17 18 14 7 12 16 19 15 15 24 44 57 56 52 49 48 45 40 34 29 26 24 24 20 17 15 14 15 19 22 24 26 28 29 31 31 37 35 34 37
6 6 11 8 10 1 2 4 6 9 13 7 14 22 24 23 18 19 22 38 57 61 58 54 53 50 44 38 35 33 30 27 23 20 19 16 16 18 21 23 23 25 26 28 29 34 34 33 36
Wind_Direction_850mb
4 157 140 122 224 207 123 121 104 134 132 62 142 226 78 48 14 8 155 334 342 340 341 342 342 338 337 340 345 340 338 339 337 339 337 337 334 330 323 315 308 299 291 287 284 283 281 279 272
148 141 93 237 260 225 120 136 157 110 115 116 105 85 71 92 68 106 144 305 332 344 343 340 340 338 340 344 344 341 343 349 353 356 355 352 346 337 328 322 318 310 303 299 292 284 279 276 273
159 157 246 79 68 152 104 142 129 128 133 184 99 67 118 99 113 147 251 328 349 344 340 340 340 339 343 345 346 341 2 8 5 0 2 359 352 347 343 336 329 319 313 306 301 296 291 284 277
156 99 63 274 90 78 43 142 154 139 118 135 142 98 70 153 168 192 306 337 342 343 341 338 343 346 347 348 355 4 16 13 11 11 8 4 2 2 1 1 358 355 344 331 314 303 297 290 287
153 173 150 109 105 124 147 143 160 148 117 112 220 115 117 173 177 197 299 348 343 340 343 346 346 349 350 357 1 18 24 23 19 18 15 13 10 8 8 5 7 359 352 348 339 336 331 324 304
184 233 194 166 133 141 148 165 164 156 112 152 117 148 145 197 199 228 317 337 338 344 345 347 346 351 359 12 14 28 27 22 20 17 20 17 11 10 12 12 8 7 3 357 355 352 352 348 340
232 232 95 124 128 167 177 169 199 173 160 163 156 176 145 204 212 229 303 330 336 346 343 350 353 359 10 15 25 29 25 21 19 20 20 17 14 16 11 13 20 24 19 17 12 12 11 6 358
125 99 137 169 177 138 151 169 184 189 151 165 163 185 160 200 207 227 307 324 340 343 346 348 2 13 17 22 26 27 24 24 22 22 21 19 21 21 19 21 26 29 30 28 27 22 22 23 16
134 188 179 168 176 130 155 185 156 182 142 179 202 181 203 194 198 234 313 329 337 339 349 3 15 19 22 28 31 30 27 33 29 27 25 25 26 28 28 30 31 33 34 36 31 26 31 26 26
202 224 149 95 133 135 172 194 175 184 186 212 218 228 210 190 193 223 296 323 336 346 357 14 22 27 27 33 41 40 38 40 42 42 38 35 30 25 29 32 32 35 41 40 35 34 32 32 28
61 243 132 137 131 113 164 192 178 207 222 226 220 206 206 195 198 227 286 322 341 346 11 23 27 33 39 49 50 48 46 44 44 40 35 33 28 25 29 31 30 33 35 37 35 36 29 25 25
138 91 74 131 163 147 168 154 203 218 240 186 216 203 203 197 199 223 283 323 337 357 23 32 31 38 48 56 55 49 44 44 41 37 32 35 33 29 30 31 30 31 31 30 31 33 33 30 18
125 141 99 116 144 128 159 199 238 242 232 237 239 210 199 196 207 226 269 311 338 6 30 35 40 52 63 64 58 53 47 42 39 35 35 33 34 31 29 29 30 31 31 29 29 30 31 39 39
110 119 112 121 126 128 254 224 263 210 232 223 220 205 202 205 212 229 254 293 328 14 48 51 59 71 78 74 70 56 50 42 35 34 35 33 35 35 35 34 33 31 29 30 30 31 33 47 55
126 117 135 140 157 120 267 236 228 248 220 202 207 205 208 208 215 224 239 260 290 53 81 83 91 103 103 87 69 59 46 36 33 37 41 41 42 41 40 41 40 39 38 36 35 38 54 56 65
133 178 199 130 178 141 239 263 169 270 212 213 205 205 210 216 219 226 229 238 241 167 127 128 130 130 126 91 80 52 43 40 42 46 47 46 46 45 42 42 42 42 41 42 44 47 60 66 68
179 202 210 162 187 157 230 276 133 243 213 229 221 216 217 215 220 225 224 225 221 197 175 170 158 147 131 114 69 52 48 48 53 53 52 50 48 48 47 46 46 45 46 45 47 48 58 65 66
176 197 188 197 157 213 223 261 254 242 228 240 233 226 222 218 223 224 220 220 217 207 195 187 179 169 153 120 66 49 51 60 60 58 56 53 50 50 50 49 49 50 51 50 49 53 54 56 57
132 135 147 120 141 214 244 275 278 264 245 246 239 235 229 226 220 221 219 218 216 210 202 196 192 187 178 148 55 42 55 69 66 63 58 55 53 52 51 51 50 51 51 53 53 49 51 57 71
150 158 184 94 116 237 292 282 279 261 248 265 265 248 237 225 214 217 216 216 215 212 207 202 198 195 190 184 120 63 74 73 69 63 60 57 55 54 53 52 51 50 52 53 55 57 58 51 46
206 226 186 323 152 185 294 262 286 290 131 269 263 257 241 226 220 214 213 213 213 211 207 203 199 194 191 191 189 96 97 85 70 64 60 58 55 53 51 52 52 49 48 48 49 50 53 59 60
216 192 147 141 202 265 340 300 281 317 337 76 65 360 274 236 221 213 210 209 209 206 204 200 192 188 189 196 191 159 155 116 94 75 66 61 57 56 53 53 51 49 49 48 47 46 47 52 55
119 133 125 129 137 256 166 228 270 53 113 6 343 1 344 248 216 207 206 208 207 206 202 194 188 187 191 194 193 168 165 151 116 91 79 69 64 60 58 56 54 52 51 50 51 52 49 48 49
140 107 79 78 122 233 127 251 270 340 307 317 337 341 340 284 200 200 201 204 204 203 200 195 192 193 195 196 195 182 173 165 140 111 87 85 77 69 62 59 54 53 53 52 51 50 50 51 50
169 162 150 196 190 248 43 222 305 301 323 317 328 336 348 339 195 193 196 200 202 204 200 198 198 198 200 202 201 189 179 174 157 124 106 96 85 74 69 64 60 56 55 53 52 50 50 53 52
182 226 198 203 190 150 51 230 181 261 270 309 336 354 17 23 210 204 202 202 205 206 204 201 200 200 203 205 202 195 186 180 173 146 122 111 94 83 76 71 66 61 60 57 55 54 53 55 55
162 204 73 104 17 200 189 258 246 152 138 110 46 18 7 351 266 210 203 204 208 208 208 206 203 204 205 205 203 198 193 191 184 173 147 131 106 91 82 77 73 70 67 63 61 58 57 58 59
300 129 136 200 166 209 199 270 227 199 118 107 45 6 0 333 292 232 209 206 210 212 213 210 208 210 209 209 206 201 197 195 190 183 166 146 118 101 92 87 83 77 72 68 65 63 59 61 61
154 178 94 109 320 175 170 223 194 159 151 135 360 336 340 332 300 269 227 210 210 212 213 213 212 212 212 212 212 208 205 202 196 188 178 160 136 116 105 98 91 85 79 74 68 67 64 64 65
329 186 182 189 182 155 321 182 168 137 161 163 352 334 337 341 312 276 244 220 212 213 214 214 214 214 214 214 214 211 206 206 202 195 191 171 153 132 121 111 102 94 86 80 74 71 67 67 68